Regional Weather Roundup
Issued by NWS Burlington, VT

Home | Current Version | Previous Version | Graphics & Text | Print | Product List | Glossary On
Versions: 1 2 3 4 5 6 7 8 9 10 11 12 13 14 15 16 17 18 19 20 21 22 23 24 25 26 27 28 29 30 31 32 33 34 35 36 37 38 39 40 41 42 43 44 45 46 47 48 49 50
000
ASUS41 KBTV 180430
RWRBTV
VERMONT REGIONAL WEATHER ROUNDUP
NATIONAL WEATHER SERVICE BURLINGTON VT
1100 PM EST TUE JAN 17 2017

NOTE: "FAIR" INDICATES FEW OR NO CLOUDS BELOW 12,000 FEET WITH NO
SIGNIFICANT WEATHER AND/OR OBSTRUCTIONS TO VISIBILITY.

* THESE REPORTS ARE NOT UNDER NWS QUALITY CONTROL AND/OR DO NOT
  REPORT WEATHER SUCH AS PRECIPITATION AND FOG.

VTZ001>019-180500-
_____VERMONT_____


CITY           SKY/WX    TMP DP  RH WIND       PRES   REMARKS
BURLINGTON     LGT SNOW  33  32  96 S6        29.99F VSB 3/4 WCI  28
MONTPELIER     LGT SNOW  31  29  92 SE5G17    30.06F FOG     WCI  26
MORRISVILLE    LGT SNOW  32  29  88 CALM      30.05S FOG
ST. JOHNSBURY*   N/A     31  30  96 MISG      30.06S
LYNDONVILLE*   LGT SNOW  29  28  97 E5        30.06S WCI  24
MIDDLEBURY*    FLURRIES  34  31  88 S6        29.99F WCI  29
RUTLAND*       LGT SNOW  34  30  86 SE20G32   29.98F FOG     WCI  22
SPRINGFIELD    LGT SNOW  32  30  92 CALM      30.07F VSB 1
HIGHGATE*      LGT SNOW  32  31  99 SE3       30.00F
NEWPORT*       LGT SNOW  30  28  94 SE9       30.03F WCI  22
BENNINGTON     LGT RAIN  36  29  75 SE13      29.99F WCI  27
SUTTON*          N/A     28 N/A N/A MISG        N/A
ISLAND POND*     N/A     28 N/A N/A SE8         N/A  WCI  20
GALLUP MILLS*    N/A     28 N/A N/A MISG        N/A
UNION VILLAGE*   N/A     30 N/A N/A MISG        N/A

_____LAKE CHAMPLAIN_____


CITY           SKY/WX    TMP DP  RH WIND       PRES   REMARKS
BURTON ISLAND*   N/A     32  32 100 S7          N/A  WCI  26
COLCHESTER RF*   N/A     34  34 100 SE16        N/A  WCI  23
DIAMOND ISL*     N/A     32  32 100 S7          N/A  WCI  26

$$

NYZ007-026>031-035-052-083-087-180500-
_____NORTHERN NEW YORK_____


CITY           SKY/WX    TMP DP  RH WIND       PRES   REMARKS
PLATTSBURGH    LGT SNOW  33  31  92 SE12      29.98F FOG     WCI  24
SARANAC LAKE   CLOUDY    33  28  81 MISG      29.84F
MASSENA        LGT SNOW  29  27  92 NE12      29.93F FOG     WCI  19
OGDENSBURG*    LGT RAIN  30  30 100 E10       29.87F WCI  21
POTSDAM*       MIX PCPN  30  30 100 E7        29.88F WCI  23
WATERTOWN      CLOUDY    35  35 100 NE3       29.81F FOG
FT DRUM        LGT RAIN  34  32  93 SE18G28   29.79F FOG     WCI  23
ALBANY         LGT RAIN  34  31  88 S7        30.00F FOG     WCI  28
GLENS FALLS    CLOUDY    32  29  88 CALM      30.01F FOG

$$
NHZ002-005-011-180500-
_____NEW HAMPSHIRE_____


CITY           SKY/WX    TMP DP  RH WIND       PRES   REMARKS
LEBANON        LGT SNOW  33  32  96 CALM      30.06F FOG
KEENE          LGT SNOW N/A N/A N/A CALM      30.08S
MT WASHINGTON  SNOW      14  14 100 SE28        N/A  VSB 1/16WCI  -6
PLYMOUTH       LGT SNOW  31  30  94 E5        30.11F WCI  27
WHITEFIELD     LGT SNOW  30  24  78 S10       30.06R WCI  21

$$

_____REGIONAL QUEBEC LOCATIONS_____


CITY           SKY/WX    TMP DP  RH WIND       PRES   REMARKS
MONTREAL       LGT SNOW  23  18  80 NE20G25   30.01F DRFTSNOWWCI   8
QUEBEC CITY    CLOUDY    18   7  62 E17G28    30.20F WCI   2
SHERBROOKE     CLOUDY    30  19  64 SE14G21   30.06S WCI  20

_____REGIONAL ONTARIO LOCATIONS_____


CITY           SKY/WX    TMP DP  RH WIND       PRES   REMARKS
OTTAWA         LGT SNOW  25  23  93 NE15G21   29.92S WCI  12

______KEY______
VSB  - VISIBILITY IN MILES
WCI  - WIND CHILL INDEX
HX   - HEAT INDEX
$$
NNNN



USA.gov is the U.S. government's official web portal to all federal, state and local government web resources and services.